Flag for U.S.A. Weather past 2 weeks in Sierra Vista, Arizona, U.S.A.

Now
68 °F

Clear.


Feels Like: 68 °F
Forecast: 61 / 91 °F
Wind: 6 mph from South

Location: Fort Huachuca

Current Time: Jun 3, 2015 at 2:41:34 AM

Latest Report: Jun 3, 2015 at 1:58 AM


Visibility: 10 mi

Pressure: 29.83 "Hg

Humidity: 16%

Dew point: 20 °F

Location of Sierra VistaLocation

Historic Weather in Sierra Vista — Graph

°F

Sierra Vista temperature yesterday

Maximum temperature yesterday: 91 °F (at 3:03 PM)
Minimum temperature yesterday: 64 °F (at 4:58 AM)
Average temperature yesterday: 80 °F

Past Weeks' High & Low Weather Summary

 TemperatureHumidityPressure
High93 °F (Jun 1, 1:58 PM)65% (May 25, 5:58 AM)30.16 "Hg (May 25, 5:58 AM)
Low47 °F (May 23, 4:58 AM)4% (May 27, 2:58 PM)29.75 "Hg (May 21, 1:58 PM)
Average71 °F19%29.88 "Hg
* Reported May 19 12:58 AM — Jun 3 12:58 AM, Sierra Vista, Weather by CustomWeather, © 2015

Note: Actual official high and low records may vary slightly from our data, if they occured in-between our weather recording intervals... More about our weather records

Advertising

Sierra Vista weather history for previous 24 hours

 ConditionsComfort  
Time TempWeatherWind HumidityBarometerVisibility
12:58 AM
Wed, Jun 3
67 °FClear.1 mph16%29.84 "Hg10 mi
11:58 PM
Tue, Jun 2
73 °FClear.13 mph13%29.83 "Hg10 mi
10:58 PM76 °FClear.16 mph11%29.83 "Hg10 mi
9:58 PM77 °FClear.14 mph10%29.86 "Hg10 mi
8:58 PM79 °FClear.14 mph11%29.85 "Hg10 mi
7:58 PM80 °FClear.15 mph9%29.83 "Hg10 mi
6:58 PM84 °FSunny.15 mph7%29.82 "Hg10 mi
5:58 PM88 °FSunny.18 mph6%29.81 "Hg10 mi
4:58 PM89 °FSunny.17 mph6%29.82 "Hg9 mi
3:58 PM91 °FSunny.14 mph8%29.82 "Hg10 mi
3:03 PM91 °FSunny.15 mph8%30.07 "Hg10 mi
1:58 PM91 °FSunny.22 mph8%29.84 "Hg10 mi
1:04 PM90 °FSunny.20 mph7%30.11 "Hg10 mi
12:58 PM90 °FSunny.21 mph8%29.87 "Hg10 mi
11:58 AM89 °FSunny.21 mph9%29.88 "Hg10 mi
11:04 AM88 °FSunny.20 mph9%30.13 "Hg10 mi
10:58 AM88 °FSunny.14 mph9%29.90 "Hg10 mi
9:58 AM84 °FSunny.6 mph13%29.91 "Hg10 mi
8:58 AM80 °FSunny.6 mph15%29.93 "Hg9 mi
7:58 AM76 °FSunny.8 mph18%29.94 "Hg9 mi
6:58 AM72 °FSunny.5 mph21%30.16 "Hg7 mi
5:58 AM67 °FSunny.1 mph24%29.92 "Hg8 mi
4:58 AM64 °FClear.2 mph24%29.91 "Hg10 mi
3:58 AM70 °FClear.3 mph20%29.89 "Hg10 mi
2:58 AM70 °FClear.5 mph20%29.88 "Hg10 mi
Weather by CustomWeather, © 2015

See weather overviewHow to use our weather pages